Hourly Data Report for October 25, 2003

SHERBROOKE A
QUEBEC

45°26'00.000" N
71°41'00.000" W
241.40 m
7028124
71610
YSC

Download Data

Hourly Data (October 2003)
Hourly Data Report for October 25, 2003
TIME
LST
Temp Definition
°C
Dew Point Definition
°C
Rel Hum Definition
%
Precip. Amount Definition
mm

Wind Dir Definition
10's deg

Wind Spd Definition
km/h
Visibility Definition
km
Stn Press Definition
kPa
Hmdx Definition


Wind Chill Definition


Weather Definition


00:00 -4.7 -6.3 89     0 15.0 99.76      
01:00 -5.4 -7.0 88   9 4 15.0 99.83   -7  
02:00 -5.1 -6.3 91   8 4 15.0 99.83   -7  
03:00 -4.2 -5.7 89   9 4 15.0 99.89   -6  
04:00 -2.8 -4.4 89   8 4 15.0 99.95   -4  
05:00 -2.2 -4.3 85   11 7 15.0 99.94   -5  
06:00 -1.7 -3.8 86   9 4 15.0 99.97   -3  
07:00 -1.1 -3.2 86   5 4 24.1 99.95   -2 Mostly Cloudy
08:00 2.3 -2.4 71   12 6 24.1 99.94     Mostly Cloudy
09:00 4.0 -2.1 64   18 4 24.1 99.95     Mostly Cloudy
10:00 4.9 -3.1 56   22 7 24.1 99.99     Cloudy
11:00 5.3 -4.3 50   19 11 24.1 99.89     Mostly Cloudy
12:00 6.7 -5.2 42   17 19 24.1 99.75     Cloudy
13:00 6.2 -4.4 47   18 9 24.1 99.69     Cloudy
14:00 6.3 -3.8 48   16 9 24.1 99.60     Cloudy
15:00 5.9 -3.0 53   16 11 24.1 99.56     Cloudy
16:00 5.9 -2.8 54   16 7 24.1 99.54     Cloudy
17:00 6.2 -2.3 54   16 9 15.0 99.53      
18:00 6.1 -1.6 58   16 6 15.0 99.62      
19:00 5.8 -1.0 62   16 6 15.0 99.61      
20:00 5.3 -0.3 67   10 6 15.0 99.60      
21:00 4.8 0.5 74   5 4 15.0 99.58      
22:00 5.1 0.6 73   12 6 15.0 99.58      
23:00 7.2 0.9 64   21 6 15.0 99.54      

Notes on Data Quality.

Legend

  • E = Estimated
  • M = Missing
  • NA = Not Available*
  • [empty] = Indicates an unobserved value
Date modified: